Regional Weather Roundup
Issued by NWS

Home | Current Version | Previous Version | Text Only | Print | Product List | Glossary On
Versions: 1 2 3 4 5 6 7 8 9 10 11 12 13 14 15 16 17 18 19 20 21 22 23 24 25 26 27 28 29 30 31 32 33 34 35 36 37 38 39 40 41 42 43 44 45 46 47 48 49 50
000
ASUS45 KCYS 141110
RWRWY

WYOMING REGIONAL WEATHER ROUNDUP
NATIONAL WEATHER SERVICE CHEYENNE WY
500 AM MDT MON JUL 14 2014

NOTE:  "FAIR" INDICATES FEW OR NO CLOUDS BELOW 12,000 FEET
WITH NO SIGNIFICANT WEATHER AND/OR OBSTRUCTIONS TO VISIBILITY.

WYZ001-141200-
YELLOWSTONE NATIONAL PARK

CITY           SKY/WX    TMP DP  RH WIND       PRES   REMARKS
LK YELLOWSTONE   N/A     43  41  93 NW3       30.51S
W YELLOWSTONE  NOT AVBL

$$
WYZ002>013-054>058-071-098>099-141200-
NORTHERN WYOMING

CITY           SKY/WX    TMP DP  RH WIND       PRES   REMARKS
JACKSON        PTCLDY    50  45  81 N6        30.38S
CODY           PTCLDY    57  45  62 S5        30.34R
GREYBULL       PTCLDY    67  46  47 W8        30.23R
WORLAND        PTCLDY    67  43  41 CALM      30.25R
SHERIDAN       CLEAR     52  47  83 CALM      30.30R
BUFFALO        CLEAR     55  45  68 W6        30.34R
GILLETTE       CLEAR     53  46  77 N6        30.30R
HULETT         FAIR      52  41  66 MISG      30.31
NEWCASTLE      FAIR      52  46  82 NW3       30.27

$$
WYZ014>020-022>026-101>103-141200-
CENTRAL WYOMING

CITY           SKY/WX    TMP DP  RH WIND       PRES   REMARKS
BIG PINEY      CLEAR     50  39  66 N5        30.44R
PINEDALE       MOSUNNY   48  46  93 NW5       30.44R
DUBOIS         FAIR      48  41  76 NW7       30.46R
LANDER         PTCLDY    62  42  47 W12       30.33S
RIVERTON       CLEAR     64  42  44 NE9       30.34S
CASPER         MOCLDY    58  49  72 W3        30.33R
DOUGLAS        PTCLDY    54  48  80 NW3       30.31R

$$
WYZ021-027>030-104>119-141200-
SOUTHERN WYOMING

CITY           SKY/WX    TMP DP  RH WIND       PRES   REMARKS
EVANSTON       PTCLDY    62  43  49 E9        30.38S
KEMMERER       MOSUNNY   57  41  54 N7        30.42F
FORT BRIDGER   FAIR      60  43  54 E8        30.42S
ROCK SPRINGS   CLEAR     60  41  49 E5        30.40R
DIXON          FAIR      54  45  71 CALM      30.38S
RAWLINS        CLEAR     57  38  48 N8        30.41R
SARATOGA       FAIR      50  45  81 CALM      30.42S
LARAMIE        CLEAR     51  48  89 SE6       30.43R
CHEYENNE       CLEAR     57  50  77 NW12      30.34S
TORRINGTON     CLEAR     58  55  90 N9        30.24R

$$



USA.gov is the U.S. government's official web portal to all federal, state and local government web resources and services.